Flag Weather past 2 weeks in Prenzlau, Brandenburg, Germany

Now
43 °F

Passing clouds.


Feels Like: 43 °F
Forecast: 42 / 52 °F
Wind: No wind

Location: Szczecin Airport

Current Time: Oct 30, 2014 at 8:15:42 PM

Latest Report: Oct 30, 2014 at 7:30 PM


Visibility: 5 mi

Pressure: 30.30 "Hg

Humidity: 100%

Dew point: 43 °F

Location of PrenzlauLocation

Historic Weather in Prenzlau — Graph

°F

Prenzlau temperature yesterday

Maximum temperature yesterday: 50 °F (at 12:30 PM)
Minimum temperature yesterday: 37 °F (at 5:00 AM)
Average temperature yesterday: 43 °F

Past Weeks' High & Low Weather Summary

 TemperatureHumidityPressure
High68 °F (Oct 19, 3:30 PM)100% (Oct 15, 8:00 PM)30.30 "Hg (Oct 15, 8:00 PM)
Low34 °F (Oct 25, 7:00 AM)46% (Oct 24, 5:30 PM)29.45 "Hg (Oct 21, 11:30 PM)
Average50 °F91%30.01 "Hg
* Reported Oct 15 8:00 PM — Oct 30 7:00 PM, Prenzlau, Weather by CustomWeather, © 2014

Note: Actual official high and low records may vary slightly from our data, if they occured in-between our weather recording intervals... More about our weather records

Advertising

Prenzlau weather history for previous 24 hours

 ConditionsComfort  
Time TempWeatherWind HumidityBarometerVisibility
7:00 PM
Oct 30
45 °FPassing clouds.No wind93%30.30 "HgN/A
6:30 PM45 °FClear.No wind93%30.30 "Hg10 mi
6:00 PM45 °FClear.No wind93%30.30 "Hg10 mi
5:30 PM45 °FClear.No wind93%30.27 "Hg10 mi
5:00 PM48 °FPassing clouds.No wind87%30.27 "HgN/A
4:30 PM50 °FPartly sunny.No wind82%30.27 "HgN/A
4:00 PM50 °FScattered clouds.No wind88%30.27 "HgN/A
3:30 PM52 °FScattered clouds.2 mph77%30.27 "HgN/A
3:00 PM52 °FScattered clouds.No wind72%30.27 "HgN/A
2:30 PM54 °FScattered clouds.No wind72%30.27 "HgN/A
2:00 PM55 °FPassing clouds.No wind67%30.24 "HgN/A
1:30 PM55 °FPassing clouds.No wind72%30.24 "HgN/A
1:00 PM54 °FPassing clouds.3 mph77%30.24 "HgN/A
12:30 PM52 °FPassing clouds.1 mph88%30.24 "HgN/A
12:00 PM48 °FPassing clouds.3 mph100%30.24 "Hg5 mi
11:30 AM46 °FFog.2 mph100%30.24 "Hg3 mi
11:00 AM46 °FFog.2 mph100%30.24 "Hg1 mi
10:30 AM46 °FFog.No wind100%30.24 "Hg1 mi
10:00 AM45 °FFog.No wind100%30.24 "Hg1 mi
9:30 AM45 °FFog.2 mph100%30.24 "Hg0 mi
9:00 AM45 °FFog.2 mph100%30.21 "Hg0 mi
8:30 AM45 °FFog.2 mph100%30.21 "Hg0 mi
8:00 AM45 °FFog.3 mph100%30.21 "Hg0 mi
7:30 AM45 °FFog.3 mph100%30.18 "Hg0 mi
7:00 AM45 °FFog.3 mph100%30.18 "Hg0 mi
6:30 AM45 °FFog.3 mph100%30.18 "Hg0 mi
6:00 AM45 °FFog.3 mph100%30.15 "Hg0 mi
5:30 AM45 °FFog.5 mph100%30.15 "Hg1 mi
5:00 AM45 °FFog.3 mph100%30.15 "Hg1 mi
4:30 AM45 °FFog.2 mph93%30.15 "Hg1 mi
4:00 AM45 °FFog.No wind93%30.15 "Hg1 mi
3:30 AM45 °FFog.No wind93%30.15 "Hg1 mi
3:00 AM45 °FFog.No wind93%30.15 "Hg1 mi
2:30 AM45 °FFog.No wind93%30.12 "Hg1 mi
2:00 AM43 °FFog.No wind100%30.12 "Hg1 mi
1:30 AM43 °FFog.2 mph100%30.12 "Hg1 mi
1:00 AM43 °FFog.No wind100%30.12 "Hg1 mi
12:30 AM43 °FFog.3 mph100%30.12 "Hg1 mi
12:00 AM43 °FFog.No wind100%30.12 "Hg1 mi
11:30 PM
Oct 29
43 °FFog.No wind93%30.09 "Hg1 mi
11:00 PM43 °FFog.No wind93%30.09 "Hg1 mi
10:30 PM43 °FFog.No wind93%30.09 "Hg2 mi
10:00 PM43 °FFog.No wind93%30.09 "Hg2 mi
9:30 PM43 °FFog.2 mph93%30.09 "Hg2 mi
9:00 PM43 °FFog.3 mph93%30.09 "Hg2 mi
8:30 PM43 °FFog.2 mph93%30.09 "Hg2 mi
8:00 PM43 °FFog.2 mph93%30.09 "Hg2 mi
Weather by CustomWeather, © 2014

See weather overviewHow to use our weather pages